Weather in Santa Fe

United States     35°41′30″N   105°56′44″W
temp.,
°C
wind,
m/s
gust,
m/s
humid.,
%
clouds,
%
prec.,
mm/h
press.,
hPa
HPBL,
m
25 may, wed
wed2500:00+4e33710 0.1 101446
03:00+2se22810 0.0 101520
06:00+2nne22810 0.0 101621
09:00+10n68425 0.0 1015907
12:00+16n78175 0.0 10131722
15:00+19nne37140 0.0 10092248
18:00+22nnw710120 0.0 10072734
21:00+13sse23253 0.0 101026
26 may, thu
thu2600:00+11ese33290 0.0 101428
03:00+9e22355 0.0 101513
06:00+8ne33391 0.0 101719
09:00+16nnw45250 0.0 1017403
12:00+23wnw33140 0.0 10131280
15:00+26ssw26110 0.0 10102993
18:00+27nw6785 0.0 10084181
21:00+18ne33155 0.0 101218
27 may, fri
fri2700:00+16ese221833 0.0 101413
03:00+14e22215 0.0 101412
06:00+12e22282 0.0 101512
09:00+21wnw22150 0.0 1015511
12:00+27sw68125 0.0 10123161
15:00+29sw810105 0.0 10094474
18:00+21ese6621100 0.0 1009227
21:00+18ese3326100 0.0 101026
28 may, sat
sat2800:00+17se332467 0.0 101118
03:00+14ese3330100 0.0 101123
06:00+12se223175 0.0 101112
09:00+20sw4618100 0.0 1010754
12:00+25sw8121098 0.0 10072612
15:00+28sw7137100 0.0 10023931
18:00+27wsw8127100 0.0 9994533
21:00+17sw231117 0.0 100218
29 may, sun
sun2900:00+14se54131 0.0 100541
03:00+12se44160 0.0 100435
06:00+10se33210 0.0 100524
09:00+17ssw47200 0.0 1004988
12:00+22sw913145 0.0 10012229
15:00+26sw111613100 0.0 9964141
18:00+23wsw13172368 0.0 9953155
21:00+19sw9162152 0.0 998994